Change the Weather History Date:

Thursday, April 19, 2012

  Actual Average Record
Temperature  
Mean Temperature 52 °F 51 °F  
Max Temperature 62 °F 62 °F 77 °F (2005)
Min Temperature 42 °F 40 °F 29 °F (2013)
Degree Days  
Heating Degree Days 13 14  
Month to date heating degree days 219 333  
Since 1 July heating degree days 5151 6489  
Cooling Degree Days 0 0  
Month to date cooling degree days 4 0  
Year to date cooling degree days 19 0  
Growing Degree Days 2 (Base 50)    
Moisture  
Dew Point 48 °F    
Average Humidity 86    
Maximum Humidity 100    
Minimum Humidity 72    
Precipitation  
Precipitation 0.69 in 0.13 in 1.07 in (1991)
Month to date precipitation 1.86  
Sea Level Pressure  
Sea Level Pressure 29.78 in    
Wind  
Wind Speed 12 mph (NE)    
Max Wind Speed 33 mph    
Max Gust Speed 38 mph    
Visibility 7 miles    
Events Rain , Thunderstorm    
T = Trace of Precipitation, MM = Missing Value Source: NWS Daily Summary

Daily Weather History Graph

Daily Weather History Graph

Search for Another Location

Airport or City:

Trip Planner

Search our weather history database for the weather conditions in past years. The results will help you decide how hot, cold, wet, or windy it might be!

Date:

Astronomy

Apr. 19, 2012 Rise Set
Actual Time 6:27 AM CDT 8:00 PM CDT
Civil Twilight 5:57 AM CDT 8:30 PM CDT
Nautical Twilight 5:22 AM CDT 9:05 PM CDT
Astronomical Twilight 4:44 AM CDT 9:43 PM CDT
Moon 5:22 AM CDT (4/19) 6:48 PM CDT (4/19)
Length of Visible Light 14h 32m
Length of Day
13h 33m
Waning Crescent, 2% of the Moon is Illuminated
Apr 19
Waning Crescent
Apr 21
New
Apr 29
First Quarter
May 5
Full
May 12
Last Quarter

Hourly Weather History & Observations

Time (CDT) Temp. Windchill Dew Point Humidity Pressure Visibility Wind Dir Wind Speed Gust Speed Precip Events Conditions
12:53 AM 54.0 °F - 46.0 °F 75% 29.91 in 10.0 mi NE 4.6 mph - N/A   Clear
1:53 AM 53.1 °F - 46.0 °F 77% 29.91 in 10.0 mi NE 4.6 mph - N/A   Scattered Clouds
2:53 AM 51.1 °F - 46.0 °F 83% 29.90 in 10.0 mi NE 5.8 mph - N/A   Clear
4:53 AM 51.1 °F - 45.0 °F 80% 29.91 in 10.0 mi ENE 8.1 mph - N/A   Mostly Cloudy
5:53 AM 50.0 °F - 45.0 °F 83% 29.89 in 10.0 mi ENE 8.1 mph - N/A   Scattered Clouds
6:53 AM 51.1 °F - 45.0 °F 80% 29.87 in 10.0 mi East 10.4 mph - N/A   Mostly Cloudy
7:53 AM 52.0 °F - 45.0 °F 77% 29.85 in 10.0 mi East 12.7 mph - N/A   Mostly Cloudy
8:23 AM 51.8 °F - 46.4 °F 82% 29.85 in 10.0 mi East 11.5 mph 17.3 mph N/A Thunderstorm Overcast
8:35 AM 51.8 °F - 46.4 °F 82% 29.87 in 1.8 mi SE 9.2 mph - 0.11 in Rain , Thunderstorm Heavy Thunderstorms and Rain
8:53 AM 50.0 °F - 48.0 °F 93% 29.85 in 2.5 mi ESE 10.4 mph - 0.26 in Rain , Thunderstorm Thunderstorms and Rain
9:00 AM 50.0 °F - 48.2 °F 94% 29.85 in 3.0 mi ESE 9.2 mph - 0.01 in Rain , Thunderstorm Rain
9:11 AM 50.0 °F - 48.2 °F 94% 29.83 in 7.0 mi ESE 8.1 mph - 0.01 in Rain Light Rain
9:53 AM 51.1 °F - 48.9 °F 92% 29.83 in 6.0 mi East 9.2 mph - 0.03 in Rain Light Rain
10:10 AM 51.8 °F - 48.2 °F 88% 29.84 in 2.5 mi NE 8.1 mph - 0.02 in Rain Rain
10:19 AM 51.8 °F - 48.2 °F 88% 29.84 in 6.0 mi NE 8.1 mph - 0.02 in Rain Light Rain
10:53 AM 51.1 °F - 48.9 °F 92% 29.82 in 7.0 mi East 9.2 mph - 0.03 in   Overcast
11:08 AM 51.8 °F - 50.0 °F 94% 29.82 in 7.0 mi ENE 6.9 mph - N/A   Overcast
11:53 AM 53.1 °F - 51.1 °F 93% 29.80 in 7.0 mi East 10.4 mph - N/A   Overcast
12:08 PM 53.6 °F - 51.8 °F 94% 29.79 in 7.0 mi East 9.2 mph - N/A   Overcast
12:41 PM 55.4 °F - 53.6 °F 94% 29.77 in 7.0 mi ENE 6.9 mph - N/A   Overcast
12:53 PM 55.9 °F - 54.0 °F 93% 29.76 in 6.0 mi ENE 6.9 mph - N/A Thunderstorm Overcast
1:29 PM 57.2 °F - 55.4 °F 94% 29.74 in 9.0 mi East 8.1 mph - N/A   Overcast
1:39 PM 59.0 °F - 55.4 °F 88% 29.73 in 10.0 mi ESE 9.2 mph - N/A   Mostly Cloudy
1:45 PM 60.8 °F - 57.2 °F 88% 29.73 in 10.0 mi ESE 9.2 mph - N/A   Mostly Cloudy
1:53 PM 61.0 °F - 57.0 °F 87% 29.72 in 10.0 mi SE 6.9 mph - N/A   Mostly Cloudy
2:53 PM 62.1 °F - 54.0 °F 75% 29.70 in 10.0 mi South 4.6 mph - N/A   Overcast
3:53 PM 61.0 °F - 55.0 °F 81% 29.67 in 10.0 mi NNE 6.9 mph - N/A   Overcast
4:31 PM 53.6 °F - 51.8 °F 94% 29.68 in 2.5 mi NNE 5.8 mph - 0.01 in Rain Light Rain
4:51 PM 53.6 °F - 51.8 °F 94% 29.67 in 4.0 mi NNE 9.2 mph - 0.02 in Rain Light Rain
4:53 PM 53.1 °F - 52.0 °F 96% 29.67 in 4.0 mi NNE 11.5 mph - 0.02 in   Overcast
5:22 PM 53.6 °F - 51.8 °F 94% 29.65 in 2.5 mi ENE 11.5 mph - 0.04 in Rain Rain
5:39 PM 51.8 °F - 51.8 °F 100% 29.69 in 4.0 mi NW 33.4 mph 38.0 mph 0.06 in Rain Light Rain
5:48 PM 48.2 °F - 46.4 °F 93% 29.69 in 4.0 mi North 20.7 mph - 0.08 in Rain Rain
5:49 PM 48.0 °F - 46.0 °F 93% 29.69 in 3.0 mi North 20.7 mph - 0.08 in Rain Rain
6:00 PM 46.4 °F 39.0 °F 44.6 °F 93% 29.70 in 6.0 mi North 19.6 mph 28.8 mph 0.02 in Rain Light Rain
6:30 PM 44.6 °F 36.1 °F 44.6 °F 100% 29.71 in 2.5 mi North 21.9 mph 28.8 mph 0.09 in Rain Heavy Rain
6:42 PM 44.6 °F 38.1 °F 44.6 °F 100% 29.71 in 2.5 mi North 13.8 mph - 0.12 in Rain Light Rain
6:49 PM 44.6 °F 37.2 °F 44.6 °F 100% 29.71 in 3.0 mi North 17.3 mph - 0.17 in Rain Heavy Rain
6:53 PM 45.0 °F 38.5 °F 44.1 °F 97% 29.71 in 2.0 mi North 13.8 mph - 0.20 in Rain Heavy Rain
7:00 PM 44.6 °F 38.1 °F 42.8 °F 93% 29.71 in 1.8 mi NNE 13.8 mph - 0.03 in Rain Heavy Rain
7:03 PM 44.6 °F 38.4 °F 42.8 °F 93% 29.71 in 2.0 mi NNE 12.7 mph - 0.03 in Rain Rain
7:53 PM 44.1 °F 36.2 °F 43.0 °F 96% 29.74 in 10.0 mi North 18.4 mph - 0.07 in   Overcast
8:53 PM 44.1 °F 37.1 °F 42.1 °F 93% 29.79 in 10.0 mi North 15.0 mph 27.6 mph N/A   Overcast
9:53 PM 43.0 °F 34.2 °F 39.9 °F 89% 29.83 in 10.0 mi North 20.7 mph 31.1 mph N/A   Overcast
10:53 PM 43.0 °F 34.2 °F 39.9 °F 89% 29.83 in 10.0 mi North 20.7 mph 29.9 mph N/A   Overcast
11:53 PM 42.1 °F 33.3 °F 39.0 °F 89% 29.85 in 10.0 mi North 19.6 mph 26.5 mph N/A   Overcast